DW1231 Weather Reports


Display with metric or nautical units.
time (UTC)temp
F
wind
direction
speed
MPH
gust
MPH
rain 1hr
in
rain 24hr
in
rain mn
in
humidity
%
barometer
mb
20210917225019 87 0 3.0 5.0 0.00 0.00 0.00 54 1016.0
20210917224020 87 0 6.0 8.0 0.00 0.00 0.00 51 1015.9
20210917223020 88 0 4.0 6.0 0.00 0.00 0.00 51 1015.8
20210917222021 88 0 3.0 5.0 0.00 0.00 0.00 52 1015.7
20210917221020 88 0 6.0 10.0 0.00 0.00 0.00 51 1015.7
20210917220019 88 0 4.0 6.0 0.00 0.00 0.00 52 1015.8
20210917215020 87 0 4.0 6.0 0.00 0.00 0.00 54 1015.9
20210917214020 88 0.0 1.0 0.00 0.00 0.00 53 1015.9
20210917213020 87 0.0 0.0 0.00 0.00 0.00 52 1015.9
20210917212021 87 0 4.0 6.0 0.00 0.00 0.00 54 1015.9
20210917211019 88 0 5.0 10.0 0.00 0.00 0.00 51 1015.9
20210917210019 87 0.0 0.0 0.00 0.00 0.00 53 1015.8
20210917205019 86 0 4.0 13.0 0.00 0.00 0.00 55 1016.0
20210917204019 86 0 3.0 4.0 0.00 0.00 0.00 55 1016.0
20210917203020 87 0.0 5.0 0.00 0.00 0.00 54 1016.0
20210917202111 86 0.0 0.0 0.00 0.00 0.00 55 1016.1
20210917201320 86 0 1.0 3.0 0.00 0.00 0.00 58 1016.3
20210917200320 87 0 2.0 5.0 0.00 0.00 0.00 57 1016.3
20210917195320 87 0 4.0 8.0 0.00 0.00 0.00 55 1016.5
20210917194320 87 0 3.0 3.0 0.00 0.00 0.00 55 1016.6
20210917193319 86 0 1.0 3.0 0.00 0.00 0.00 60 1016.7
20210917192320 85 0 3.0 4.0 0.00 0.00 0.00 60 1016.9
20210917191319 85 0.0 0.0 0.00 0.00 0.00 61 1017.1
20210917190320 84 0.0 5.0 0.00 0.00 0.00 65 1017.1
20210917185319 83 0.0 0.0 0.00 0.00 0.00 65 1017.3
20210917184319 84 0.0 0.0 0.00 0.00 0.00 63 1017.6
20210917183320 84 0 2.0 4.0 0.00 0.00 0.00 63 1017.6
20210917182319 84 0 4.0 8.0 0.00 0.00 0.00 63 1017.7
20210917181319 83 0.0 0.0 0.00 0.00 0.00 65 1018.0
20210917180319 83 0.0 0.0 0.00 0.00 0.00 66 1018.1
20210917175319 82 0 4.0 6.0 0.00 0.00 0.00 68 1018.2
20210917174320 82 0.0 1.0 0.00 0.00 0.00 69 1018.2
20210917173319 82 0 1.0 2.0 0.00 0.00 0.00 69 1018.2
20210917172319 82 0.0 1.0 0.00 0.00 0.00 69 1018.2
20210917171319 82 0 1.0 3.0 0.00 0.00 0.00 68 1018.3
20210917170320 82 0.0 1.0 0.00 0.00 0.00 70 1018.4
20210917165320 82 0.0 0.0 0.00 0.00 0.00 68 1018.4
20210917164320 82 0.0 2.0 0.00 0.00 0.00 69 1018.4
20210917163319 82 0.0 0.0 0.00 0.00 0.00 68 1018.5
20210917162320 81 0.0 0.0 0.00 0.00 0.00 72 1018.6
20210917161319 81 0 1.0 3.0 0.00 0.00 0.00 70 1018.6
20210917160319 80 0.0 0.0 0.00 0.00 0.00 73 1018.5
20210917155320 79 0 2.0 3.0 0.00 0.00 0.00 74 1018.5
20210917154320 80 0 4.0 5.0 0.00 0.00 0.00 75 1018.5
20210917153320 79 0 3.0 4.0 0.00 0.00 0.00 75 1018.3
20210917152320 79 0 2.0 4.0 0.00 0.00 0.00 77 1018.2
20210917151319 78 0.0 0.0 0.00 0.00 0.00 78 1018.1
20210917150320 78 0.0 0.0 0.00 0.00 0.00 79 1018.0
20210917145320 78 0 2.0 3.0 0.00 0.00 0.00 81 1018.0
20210917144320 77 0 4.0 8.0 0.00 0.00 0.00 82 1017.8
20210917143320 76 0 1.0 2.0 0.00 0.00 0.00 84 1017.8
20210917142319 75 0.0 0.0 0.00 0.00 0.00 85 1017.6
20210917141320 75 0 3.0 4.0 0.00 0.00 0.00 87 1017.5
20210917140320 74 0 1.0 4.0 0.00 0.00 0.00 89 1017.4
20210917135320 73 0.0 0.0 0.00 0.00 0.00 90 1017.4
20210917134319 72 0.0 0.0 0.00 0.00 0.00 91 1017.2
20210917133320 71 0.0 0.0 0.00 0.00 0.00 92 1017.1
20210917132320 70 0.0 2.0 0.00 0.00 0.00 93 1017.0
20210917131320 68 0.0 0.0 0.00 0.00 0.00 95 1016.9
20210917130320 68 0.0 0.0 0.00 0.00 0.00 94 1016.7
20210917125320 67 0.0 0.0 0.00 0.00 0.00 95 1016.6
20210917124319 67 0.0 0.0 0.00 0.00 0.00 93 1016.5
20210917123319 68 0.0 0.0 0.00 0.00 0.00 95 1016.4
20210917122319 67 0.0 0.0 0.00 0.00 0.00 95 1016.3
20210917121320 68 0.0 0.0 0.00 0.00 0.00 95 1016.2
20210917120320 67 0.0 0.0 0.00 0.00 0.00 95 1016.2
20210917115320 68 0.0 0.0 0.00 0.00 0.00 95 1016.0
20210917114320 68 0.0 0.0 0.00 0.00 0.00 95 1016.0
20210917113319 68 0.0 0.0 0.00 0.00 0.00 96 1015.7
20210917112320 68 0.0 0.0 0.00 0.00 0.00 94 1015.6
20210917111320 68 0.0 0.0 0.00 0.00 0.00 94 1015.4
20210917110320 68 0.0 0.0 0.00 0.00 0.00 95 1015.5
20210917105320 68 0.0 0.0 0.00 0.00 0.00 94 1015.4
20210917104320 68 0.0 0.0 0.00 0.00 0.00 94 1015.3
20210917103320 68 0.0 0.0 0.00 0.00 0.00 94 1015.3
20210917102320 68 0.0 0.0 0.00 0.00 0.00 93 1015.2
20210917101320 68 0.0 2.0 0.00 0.00 0.00 92 1015.0
20210917100320 69 0.0 0.0 0.00 0.00 0.00 92 1015.0
20210917095319 69 0.0 0.0 0.00 0.00 0.00 90 1015.0
20210917094320 70 0.0 0.0 0.00 0.00 0.00 89 1015.0
20210917093319 70 0.0 0.0 0.00 0.00 0.00 89 1015.0
20210917092320 70 0.0 0.0 0.00 0.00 0.00 89 1015.1
20210917091321 70 0.0 0.0 0.00 0.00 0.00 89 1014.9
20210917090320 71 0.0 0.0 0.00 0.00 0.00 88 1015.0
20210917085321 71 0.0 0.0 0.00 0.00 0.00 89 1015.0
20210917084320 70 0.0 2.0 0.00 0.00 0.00 88 1014.9
20210917083320 71 0.0 0.0 0.00 0.00 0.00 88 1015.0
20210917082319 71 0.0 0.0 0.00 0.00 0.00 87 1015.0
20210917081320 71 0.0 0.0 0.00 0.00 0.00 86 1015.0
20210917080320 71 0.0 0.0 0.00 0.00 0.00 86 1015.1
20210917075319 72 0.0 0.0 0.00 0.00 0.00 85 1015.1
20210917074320 72 0.0 0.0 0.00 0.00 0.00 85 1015.0
20210917073320 72 0.0 0.0 0.00 0.00 0.00 85 1015.1
20210917072320 72 0.0 0.0 0.00 0.00 0.00 84 1015.0
20210917071321 72 0.0 0.0 0.00 0.00 0.00 84 1015.0
20210917070320 72 0.0 0.0 0.00 0.00 0.00 84 1015.1
20210917065320 72 0.0 0.0 0.00 0.00 0.00 84 1015.1
20210917064320 73 0.0 0.0 0.00 0.00 0.00 84 1015.1
20210917063320 73 0.0 0.0 0.00 0.00 0.00 83 1015.1
20210917062320 73 0.0 0.0 0.00 0.00 0.00 82 1015.1
20210917061320 73 0.0 0.0 0.00 0.00 0.00 81 1015.1
20210917060321 74 0.0 0.0 0.00 0.00 0.00 81 1015.0
20210917055320 74 0.0 0.0 0.00 0.00 0.00 81 1015.1
20210917054321 74 0.0 0.0 0.00 0.00 0.00 81 1015.0
20210917053320 74 0.0 0.0 0.00 0.00 0.00 80 1015.0
20210917052321 74 0.0 0.0 0.00 0.00 0.00 80 1015.0
20210917051320 75 0 1.0 1.0 0.00 0.00 0.00 79 1015.0
20210917050320 75 0.0 0.0 0.00 0.00 0.00 78 1015.0
20210917045319 75 0 1.0 2.0 0.00 0.00 0.00 78 1015.0
20210917044319 75 0 1.0 3.0 0.00 0.00 0.00 78 1015.0
20210917043319 75 0.0 0.0 0.00 0.00 0.00 78 1014.9
20210917042319 75 0 2.0 3.0 0.00 0.00 0.00 78 1015.0
20210917041319 76 0.0 0.0 0.00 0.00 0.00 77 1014.8
20210917040320 76 0.0 0.0 0.00 0.00 0.00 76 1014.8
20210917035319 76 0 1.0 4.0 0.00 0.00 0.00 76 1014.8
20210917034319 76 0.0 0.0 0.00 0.00 0.00 75 1014.7
20210917033319 76 0.0 0.0 0.00 0.00 0.00 75 1014.6
20210917032319 76 0.0 3.0 0.00 0.00 0.00 75 1014.6
20210917031319 76 0 1.0 3.0 0.00 0.00 0.00 74 1014.5
20210917030319 77 0.0 0.0 0.00 0.00 0.00 73 1014.4
20210917025320 77 0.0 0.0 0.00 0.00 0.00 73 1014.5
20210917024319 77 0 1.0 5.0 0.00 0.00 0.00 72 1014.3
20210917023320 78 0.0 0.0 0.00 0.00 0.00 71 1014.2
20210917022320 78 0.0 0.0 0.00 0.00 0.00 70 1014.1
20210917021319 78 0 4.0 5.0 0.00 0.00 0.00 70 1014.0
20210917020320 79 0.0 0.0 0.00 0.00 0.00 69 1013.8
20210917015319 79 0.0 0.0 0.00 0.00 0.00 68 1013.6
20210917014320 79 0.0 0.0 0.00 0.00 0.00 67 1013.5
20210917013321 80 0.0 0.0 0.00 0.00 0.00 66 1013.3
20210917012319 80 0.0 0.0 0.00 0.00 0.00 66 1013.2
20210917011320 80 0.0 0.0 0.00 0.00 0.00 65 1013.1
20210917010319 81 0.0 0.0 0.00 0.00 0.00 64 1013.0
20210917005319 82 0.0 0.0 0.00 0.00 0.00 62 1013.0
20210917004319 82 0.0 0.0 0.00 0.00 0.00 61 1012.8
20210917003320 83 0.0 0.0 0.00 0.00 0.00 60 1012.7
20210917002320 84 0 4.0 5.0 0.00 0.00 0.00 59 1012.7
20210917001319 84 0.0 0.0 0.00 0.00 0.00 58 1012.7
20210917000320 85 0 4.0 6.0 0.00 0.00 0.00 57 1012.7
20210916235319 85 0.0 4.0 0.00 0.00 0.00 55 1012.8
20210916234320 85 0 4.0 5.0 0.00 0.00 0.00 55 1012.7
20210916233319 86 0 7.0 9.0 0.00 0.00 0.00 54 1012.7
20210916232320 86 0 5.0 8.0 0.00 0.00 0.00 54 1012.6
20210916231319 87 0.0 1.0 0.00 0.00 0.00 54 1012.6
20210916230320 87 0 2.0 4.0 0.00 0.00 0.00 52 1012.7